Location: Arbon
(43.0005°N, 0.7472°E)
Time: 15:41:38
(UTC+00:00)

Envisat - Pass Details

Date: 03 November 2020
Orbit: 764 x 766 km, 98.1° (Epoch: 30 November)

Event Time Altitude Azimuth Distance (km) Brightness Sun altitude
Rises 17:14:24 0° 173° (S) 3,218 6.3 -5.8°
Reaches altitude 10° 17:16:42 10° 176° (S) 2,296 5.6 -6.2°
Maximum altitude 17:21:44 66° 258° (WSW) 836 3.5 -7.0°
Drops below altitude 10° 17:26:48 10° 341° (NNW) 2,312 5.6 -7.9°
Sets 17:29:09 0° 345° (NNW) 3,242 6.3 -8.4°
